Heraklion, Greece

8:26 PM EEST on October 01, 2016 (GMT +0300)
Nikos Kazantzakis

Weather History for LGIR - February, 2014

Change the Weather History Date:

Saturday, February 1, 2014

  Actual Average Record
Temperature  
Mean Temperature 54 °F -  
Max Temperature 58 °F 58 °F 69 °F (2015)
Min Temperature 51 °F 46 °F 41 °F (2012)
Degree Days  
Heating Degree Days 10    
Growing Degree Days 4 (Base 50)    
Moisture  
Dew Point 50 °F    
Average Humidity 79    
Maximum Humidity 94    
Minimum Humidity 66    
Precipitation  
Precipitation 0.00 in - - ()
Sea Level Pressure  
Sea Level Pressure 30.13 in    
Wind  
Wind Speed 9 mph ()    
Max Wind Speed 17 mph    
Max Gust Speed -    
Visibility 6.3 miles    
Events      
Averages and records for this station are not official NWS values.
T = Trace of Precipitation, MM = Missing Value Source: Averaged Metar Reports

Daily Weather History Graph

Daily Weather History Graph

Search for Another Location

Airport or City:

Trip Planner

Search our weather history database for the weather conditions in past years. The results will help you decide how hot, cold, wet, or windy it might be!

Date:

Astronomy

Feb. 01, 2014 Rise Set
Actual Time 7:18 AM EET 5:47 PM EET
Civil Twilight 6:52 AM EET 6:13 PM EET
Nautical Twilight 6:21 AM EET 6:44 PM EET
Astronomical Twilight 5:51 AM EET 7:14 PM EET
Moon 8:01 AM EET 7:53 PM EET
Length of Visible Light 11h 21m
Length of Day
10h 28m
Waxing Crescent, 3% of the Moon is Illuminated
Feb 1
Waxing Crescent
Feb 6
First Quarter
Feb 15
Full
Feb 22
Last Quarter
Mar 1
New

Hourly Weather History & Observations

Time (EET) Temp. Dew Point Humidity Pressure Visibility Wind Dir Wind Speed Gust Speed Precip Events Conditions
12:20 AM 51.8 °F 48.2 °F 88% 30.18 in 6.2 mi SSW 5.8 mph - N/A   Scattered Clouds
12:50 AM 51.8 °F 48.2 °F 88% 30.18 in 6.2 mi Variable 2.3 mph - N/A   Scattered Clouds
1:20 AM 51.8 °F 48.2 °F 88% 30.18 in 6.2 mi Variable 4.6 mph - N/A   Scattered Clouds
1:50 AM 51.8 °F 50.0 °F 94% 30.18 in 6.2 mi Variable 4.6 mph - N/A   Scattered Clouds
2:00 AM 53 °F 50 °F 84% 30.20 in 9 mi 4.6 mph - -   Partly Cloudy
2:20 AM 51.8 °F 50.0 °F 94% 30.18 in 6.2 mi South 4.6 mph - N/A   Scattered Clouds
2:50 AM 51.8 °F 50.0 °F 94% 30.18 in 6.2 mi Variable 3.5 mph - N/A   Scattered Clouds
3:20 AM 51.8 °F 50.0 °F 94% 30.18 in 6.2 mi Variable 2.3 mph - N/A   Scattered Clouds
3:50 AM 53.6 °F 50.0 °F 88% 30.18 in 6.2 mi Variable 2.3 mph - N/A   Mostly Cloudy
4:50 AM 53.6 °F 50.0 °F 88% 30.18 in 6.2 mi NNE 17.3 mph - N/A   Mostly Cloudy
5:00 AM 54 °F 50 °F 81% 30.19 in 9 mi NNE 17.3 mph - -   Mostly Cloudy
5:50 AM 53.6 °F 50.0 °F 88% 30.18 in 6.2 mi NNE 16.1 mph - N/A   Mostly Cloudy
6:20 AM 53.6 °F 50.0 °F 88% 30.18 in 6.2 mi NNE 16.1 mph - N/A   Mostly Cloudy
6:50 AM 53.6 °F 50.0 °F 88% 30.18 in 6.2 mi NNE 16.1 mph - N/A   Mostly Cloudy
7:20 AM 55.4 °F 48.2 °F 77% 30.18 in 6.2 mi NNE 13.8 mph - N/A   Mostly Cloudy
7:50 AM 57.2 °F 50.0 °F 77% 30.18 in 6.2 mi NNE 13.8 mph - N/A   Mostly Cloudy
8:00 AM 57 °F 49 °F 67% 30.20 in 6 mi NNE 13.8 mph - -   Mostly Cloudy
8:20 AM 57.2 °F 50.0 °F 77% 30.18 in 6.2 mi NNE 15.0 mph - N/A   Mostly Cloudy
8:50 AM 57.2 °F 50.0 °F 77% 30.18 in 6.2 mi NNE 13.8 mph - N/A   Mostly Cloudy
9:20 AM 57.2 °F 50.0 °F 77% 30.18 in 6.2 mi NE 13.8 mph - N/A   Mostly Cloudy
9:50 AM 57.2 °F 50.0 °F 77% 30.18 in 6.2 mi NNE 11.5 mph - N/A   Overcast
10:20 AM 57.2 °F 50.0 °F 77% 30.18 in 6.2 mi NNE 9.2 mph - N/A   Overcast
10:50 AM 57.2 °F 50.0 °F 77% 30.21 in 6.2 mi NNE 8.1 mph - N/A   Overcast
11:00 AM 58 °F 51 °F 70% 30.22 in 6 mi NNE 8.1 mph - -   Overcast
11:20 AM 57.2 °F 50.0 °F 77% 30.21 in 6.2 mi NNE 9.2 mph - N/A   Overcast
11:50 AM 57.2 °F 51.8 °F 82% 30.18 in 6.2 mi NNE 8.1 mph - N/A   Overcast
12:20 PM 57.2 °F 51.8 °F 82% 30.18 in 6.2 mi NNE 11.5 mph - N/A   Overcast
12:50 PM 59.0 °F 51.8 °F 77% 30.18 in 6.2 mi NNE 10.4 mph - N/A   Overcast
1:20 PM 59.0 °F 51.8 °F 77% 30.18 in 6.2 mi NNE 10.4 mph - N/A   Overcast
1:50 PM 59.0 °F 50.0 °F 72% 30.15 in 6.2 mi NNE 9.2 mph - N/A   Overcast
2:00 PM 59 °F 51 °F 66% 30.17 in 6 mi NNE 9.2 mph - -   Overcast
2:20 PM 59.0 °F 50.0 °F 72% 30.15 in 6.2 mi NNE 11.5 mph - N/A   Overcast
2:50 PM 57.2 °F 50.0 °F 77% 30.15 in 6.2 mi NNE 11.5 mph - N/A   Overcast
3:20 PM 57.2 °F 50.0 °F 77% 30.15 in 6.2 mi NNE 10.4 mph - N/A   Overcast
3:50 PM 57.2 °F 50.0 °F 77% 30.12 in 6.2 mi NE 12.7 mph - N/A   Overcast
4:20 PM 57.2 °F 50.0 °F 77% 30.12 in 6.2 mi NE 13.8 mph - N/A   Overcast
4:50 PM 57.2 °F 50.0 °F 77% 30.09 in 6.2 mi NE 13.8 mph - N/A   Overcast
5:00 PM 57 °F 50 °F 72% 30.11 in 9 mi NE 13.8 mph - -   Overcast
5:20 PM 57.2 °F 50.0 °F 77% 30.09 in 6.2 mi NE 13.8 mph - N/A   Overcast
5:50 PM 57.2 °F 50.0 °F 77% 30.06 in 6.2 mi NNE 13.8 mph - N/A   Overcast
6:20 PM 57.2 °F 50.0 °F 77% 30.06 in 6.2 mi NE 13.8 mph - N/A   Overcast
6:50 PM 55.4 °F 48.2 °F 77% 30.06 in 6.2 mi NNE 13.8 mph - N/A   Overcast
7:20 PM 55.4 °F 48.2 °F 77% 30.06 in 6.2 mi NNE 15.0 mph - N/A   Overcast
7:50 PM 55.4 °F 48.2 °F 77% 30.04 in 6.2 mi NE 15.0 mph - N/A   Overcast
8:00 PM 56 °F 48 °F 66% 30.05 in 6 mi NE 15.0 mph - -   Overcast
8:20 PM 55.4 °F 48.2 °F 77% 30.04 in 6.2 mi NE 11.5 mph - N/A   Overcast
8:50 PM 55.4 °F 48.2 °F 77% 30.04 in 6.2 mi ENE 13.8 mph - N/A   Overcast
9:20 PM 55.4 °F 48.2 °F 77% 30.04 in 6.2 mi ENE 13.8 mph - N/A   Overcast
9:50 PM 55.4 °F 48.2 °F 77% 30.04 in 6.2 mi NE 13.8 mph - N/A   Overcast
10:20 PM 55.4 °F 48.2 °F 77% 30.04 in 6.2 mi ENE 12.7 mph - N/A   Overcast
10:50 PM 55.4 °F 48.2 °F 77% 30.01 in 6.2 mi NE 11.5 mph - N/A   Mostly Cloudy
11:00 PM 55 °F 48 °F 71% 30.03 in 6 mi NE 11.5 mph - -   Mostly Cloudy
11:20 PM 55.4 °F 48.2 °F 77% 30.01 in 6.2 mi ENE 11.5 mph - N/A   Mostly Cloudy
11:50 PM 55.4 °F 48.2 °F 77% 30.01 in 6.2 mi ENE 9.2 mph - N/A   Mostly Cloudy